{"data":{"norad_id":67253,"intl_designator":"2025-313F","name":"AIST-2T 1","alt_names":[],"object_type":"PAYLOAD","status":"ACTIVE","operator":null,"country":"CIS","launch_date":"2025-12-28","launch_site_code":"VOSTO","launch_vehicle":null,"mission":null,"orbit_class":"UNKNOWN","rcs_meters":null,"size_class":null,"mass_kg":null,"dimensions":null,"purposes":[],"wikipedia_slug":null,"has_3d_model":false,"image_url":null,"decayed_at":null,"tle_current":{"epoch":"2026-05-24T04:54:17.449632Z","epoch_age_seconds":146960,"freshness":"FRESH","line1":"1 67253U 25313F   26144.20436863  .00010271  00000+0  12475-3 0  9998","line2":"2 67253  97.0839 221.8356 0006286 279.0840  80.9707 15.60752812 22888","mean_motion":15.60752812,"eccentricity":0.0006286,"inclination_deg":97.0839,"raan_deg":221.8356,"arg_perigee_deg":279.084,"mean_anomaly_deg":80.9707,"bstar":0.00012475,"rev_number":2288,"period_min":92.26316870477,"perigee_km":381.22969098786,"apogee_km":389.73291191644,"semimajor_km":6763.6183014521,"source":"CELESTRAK","updated_at":"2026-05-25T13:38:06.845079Z"}}}